Temperature
12 12 12 13 13 13 13 13 13 12 12 12 12 12 12 12 12 12 12 12 12 12 12 12 12 12 12 12 12 12 12 12 12 12 11 11 11 11 11 11 10 10 10
12 12 12 12 12 12 12 12 12 12 12 12 12 12 12 12 11 11 11 11 11 11 11 11 11 11 11 11 11 11 11 11 11 11 11 11 11 11 10 10 10 10 10
12 12 12 12 12 12 12 12 12 12 12 11 11 11 11 11 11 11 11 11 11 11 11 11 11 11 11 11 11 11 11 11 11 11 11 11 10 10 10 10 10 10 10
11 11 11 12 12 12 11 11 11 11 11 11 11 11 11 11 11 11 11 11 11 11 11 11 11 11 11 10 11 11 11 11 11 11 10 10 10 10 10 9 9 9 9
11 11 11 11 11 11 11 11 11 11 11 11 11 11 11 11 11 10 10 10 11 11 11 10 10 10 10 10 10 10 10 10 10 10 10 10 10 10 9 9 9 9 9
11 11 11 11 11 11 11 11 10 10 11 10 10 10 10 10 10 10 10 10 10 10 10 10 10 10 10 10 10 10 10 10 10 10 10 10 10 9 9 9 9 9 9
10 10 10 10 10 10 10 10 10 10 10 10 10 9 9 9 10 10 10 10 10 10 9 10 10 10 10 10 10 10 10 10 10 9 9 9 9 9 9 9 9 9 9
10 10 10 10 10 10 10 10 10 10 10 10 9 9 9 9 9 9 9 9 9 9 9 9 9 9 9 9 9 9 9 9 9 9 9 9 9 9 9 9 9 8 8
9 9 10 10 10 10 10 10 10 9 9 9 9 9 9 9 9 9 9 9 9 9 9 9 9 9 9 9 9 9 9 9 9 9 9 9 9 9 9 9 8 8 8
9 9 9 9 9 9 9 9 9 9 9 9 9 9 9 9 9 9 8 9 9 9 8 9 9 9 9 9 9 9 9 9 9 8 8 8 8 8 8 8 8 8 8
8 8 8 9 9 9 9 9 9 9 9 9 9 9 9 9 9 9 8 8 8 8 8 8 8 8 8 8 9 9 9 9 8 8 8 8 8 8 8 8 8 8 8
8 8 8 8 8 8 8 9 8 8 8 8 8 8 8 9 9 9 8 8 8 8 8 8 8 8 8 8 8 8 8 8 8 8 8 8 8 8 7 7 7 7 7
7 7 7 7 8 8 8 8 8 8 8 8 8 8 8 8 8 8 8 8 8 8 8 8 8 8 8 8 8 8 8 8 8 7 7 7 7 7 7 7 7 7 6
7 7 7 7 7 7 8 8 8 8 8 8 8 8 8 8 8 8 8 8 7 7 7 7 8 7 7 7 7 7 7 7 7 7 7 7 7 7 7 7 6 6 6
6 6 6 7 7 7 7 7 7 7 7 7 7 7 7 7 7 7 7 7 7 7 7 7 7 7 7 7 7 7 7 7 7 7 7 7 7 6 6 6 6 6 5
6 6 6 6 6 7 7 7 7 7 7 7 7 7 7 7 7 7 7 7 7 7 7 7 7 7 7 7 7 7 7 7 7 7 6 6 6 6 6 6 6 5 5
5 5 6 6 6 6 7 7 7 7 7 7 7 7 7 7 7 7 7 6 6 6 6 7 6 6 6 6 6 6 6 7 6 6 6 6 6 6 6 5 5 5 5
5 5 5 5 6 6 6 6 6 6 6 6 6 6 6 6 7 6 6 6 6 6 6 6 6 6 6 6 6 6 6 6 6 6 6 5 5 5 5 5 5 5 5
5 5 5 5 5 5 5 5 6 6 6 6 6 6 6 6 6 6 6 6 6 6 6 6 6 6 6 6 5 5 5 6 6 5 5 5 5 5 5 5 5 4 4
4 4 4 4 5 5 5 5 5 5 5 6 6 6 6 6 6 6 6 6 5 5 5 5 5 5 5 5 5 5 5 5 5 5 5 5 5 5 5 4 4 4 4
4 4 4 4 4 4 4 5 5 5 5 5 5 5 5 5 5 5 5 5 5 5 5 5 5 5 5 5 5 4 4 4 4 4 4 4 4 4 4 4 4 4 4
3 3 3 3 3 4 4 4 4 4 4 4 4 4 5 5 5 5 5 4 4 4 4 4 4 4 4 4 4 4 4 3 3 4 4 4 4 4 3 3 3 3 3
2 3 3 3 3 3 3 4 4 4 4 4 4 4 4 4 4 4 4 4 4 4 4 4 4 4 4 4 4 3 3 3 3 3 3 3 3 3 3 3 3 3 3
2 2 2 2 2 3 3 3 3 3 3 3 3 3 3 3 3 3 3 3 3 3 3 3 3 3 3 3 3 3 3 3 3 3 2 2 3 3 3 2 2 2 2
1 1 1 1 2 2 2 2 2 2 2 3 3 3 3 3 3 3 2 2 3 3 3 3 3 3 3 3 2 2 2 2 2 2 2 1 2 2 2 2 2 2 2
0 0 1 1 1 1 1 2 2 1 2 2 2 2 2 2 2 2 2 2 2 2 2 2 2 2 2 2 2 2 2 1 1 1 1 1 1 1 1 1 1 1 1
Wind_Speed
5 5 5 6 7 8 8 8 9 9 9 9 10 10 9 9 8 8 7 9 9 9 8 9 9 9 8 8 8 8 8 8 8 8 8 8 8 9 9 9 9 9 9
6 5 5 5 6 8 8 8 9 8 7 8 7 8 8 8 8 8 8 8 8 8 8 8 7 7 7 7 7 7 7 7 7 7 7 7 7 7 7 8 8 8 8
8 6 5 5 6 8 9 8 8 8 6 6 6 6 7 7 7 8 8 7 7 7 7 7 7 6 6 6 6 6 6 6 6 6 6 6 6 6 6 6 6 7 7
9 7 5 4 7 8 8 6 5 5 5 5 4 4 5 6 7 7 7 7 6 6 5 6 6 5 5 5 5 5 6 6 6 5 5 5 4 4 4 5 5 5 5
9 8 5 5 8 7 6 5 4 5 5 5 5 4 4 4 5 6 6 6 6 5 5 4 5 5 4 3 3 4 4 5 5 4 4 3 3 3 3 3 3 3 4
9 8 6 6 8 6 4 5 5 4 5 5 5 4 3 3 4 4 4 4 5 5 5 5 4 4 4 3 2 2 2 3 3 3 3 2 2 2 2 2 2 2 2
7 7 6 6 6 6 6 6 5 5 4 4 4 3 2 2 2 2 3 3 3 4 4 4 4 3 2 2 2 1 1 1 2 2 1 1 1 1 1 1 1 1 1
6 6 7 5 6 6 7 7 6 4 3 3 3 4 2 0 1 1 1 2 1 2 3 3 3 2 2 1 1 1 1 0 0 1 1 1 2 1 1 0 0 0 1
5 5 6 5 5 6 7 7 7 5 5 3 2 4 4 3 1 0 1 1 1 1 1 1 2 2 1 0 1 1 1 2 2 1 1 1 1 1 0 1 1 2 2
4 4 4 6 5 5 7 7 6 5 6 6 2 1 2 4 3 1 1 1 1 2 2 1 2 2 1 1 2 2 2 2 2 2 2 2 2 1 1 2 2 2 3
4 4 4 4 5 5 6 7 6 6 5 5 4 3 2 2 2 3 2 2 1 2 2 2 3 3 3 2 2 3 2 3 3 3 3 3 3 3 3 3 3 4 4
2 3 4 3 4 4 5 6 7 8 6 5 4 4 4 3 3 3 3 3 3 2 2 2 3 4 4 3 4 4 4 4 4 4 4 4 4 4 4 4 4 4 5
3 3 3 3 3 3 5 6 6 6 6 7 7 5 4 3 3 3 3 3 2 1 1 2 3 4 4 4 4 4 4 5 5 5 5 5 4 4 4 5 5 5 6
4 4 4 4 4 4 4 6 5 5 5 7 7 6 4 3 3 3 3 3 2 1 2 3 2 3 3 4 5 5 5 6 6 6 6 5 5 4 4 5 5 5 6
3 4 4 4 4 4 4 5 5 5 4 5 6 6 5 4 3 3 3 4 4 3 4 3 2 2 3 4 5 5 5 5 6 6 6 6 5 5 5 5 5 5 6
4 4 4 4 4 4 4 4 4 4 5 5 5 6 5 4 4 3 3 3 3 4 4 3 3 2 2 3 4 4 5 5 6 6 6 5 5 5 5 5 5 5 5
5 5 5 5 5 4 4 4 4 4 6 6 5 6 7 5 5 4 4 3 3 3 3 2 2 1 2 2 2 3 4 4 5 5 6 5 5 5 5 5 5 5 5
4 5 5 5 5 5 4 5 5 5 7 7 7 7 7 6 6 5 4 4 4 3 3 3 2 2 2 2 2 1 2 3 4 5 5 5 6 6 6 6 5 6 6
4 4 4 5 5 5 5 5 5 5 6 7 7 8 7 7 7 5 5 5 4 3 3 3 2 2 1 1 1 1 1 2 3 4 5 5 5 6 6 6 6 7 7
5 5 5 5 4 4 5 5 5 5 5 5 7 7 7 8 8 7 6 6 5 4 3 3 2 2 1 1 1 1 2 1 2 2 4 5 5 6 6 6 7 7 7
5 5 4 4 4 4 5 5 5 5 5 5 5 6 6 7 7 7 6 6 6 5 4 4 3 2 2 2 3 2 2 2 2 1 1 3 3 4 5 6 7 8 8
3 3 4 4 4 4 5 6 6 6 5 5 5 4 4 6 6 6 7 7 7 7 6 5 4 4 4 4 3 3 2 1 3 2 1 3 2 3 4 5 7 7 8
2 3 3 4 4 5 6 6 7 6 5 5 5 4 3 3 4 4 5 6 6 7 7 6 6 6 5 5 5 4 4 4 4 2 2 4 2 3 5 7 7 7 7
2 2 2 2 2 3 5 6 6 5 5 5 5 5 5 4 4 4 4 3 4 4 5 5 6 6 5 5 6 5 4 2 1 1 2 3 3 3 4 6 7 7 7
1 1 1 2 2 3 4 5 5 5 4 4 4 5 5 5 5 5 4 4 3 2 3 5 5 5 5 6 6 3 3 2 3 3 2 2 2 2 3 4 6 6 6
2 2 1 1 2 2 3 5 6 4 4 4 3 4 5 5 6 6 5 5 5 4 3 2 1 2 2 4 5 5 5 4 3 3 3 2 2 1 2 2 2 3 3
Wind_Direction
133 129 127 126 126 128 126 122 119 116 112 111 114 112 107 106 103 100 101 103 102 99 104 107 108 108 107 106 102 99 99 100 100 96 92 88 84 80 80 76 72 69 67
141 137 135 131 131 136 133 130 129 123 117 115 109 111 110 108 103 99 96 97 99 97 97 102 106 107 106 108 105 101 101 97 96 97 96 94 88 83 82 78 73 67 64
152 144 143 142 139 140 134 124 121 116 115 113 107 108 108 104 100 96 94 95 97 94 94 95 96 104 106 107 106 103 102 101 98 99 97 97 96 91 87 81 75 69 63
161 151 147 153 148 141 137 131 135 128 123 121 115 105 103 104 98 97 94 95 96 94 92 92 97 97 103 108 108 106 105 104 101 100 99 101 106 104 96 88 77 69 61
169 160 154 153 150 140 140 145 143 142 138 130 120 102 92 96 96 98 91 92 96 95 93 90 93 91 88 103 110 109 111 108 104 102 101 98 106 113 102 96 85 73 61
169 163 158 158 154 148 153 153 148 138 139 135 118 97 81 86 89 91 96 96 97 97 96 93 86 81 76 83 92 102 120 123 119 111 106 100 107 113 101 99 92 68 59
166 164 164 162 161 165 166 159 148 142 135 130 116 104 69 73 93 88 89 91 90 101 99 91 87 83 69 57 59 65 115 150 164 166 152 149 147 147 127 102 85 78 48
168 168 165 172 169 166 161 162 154 157 153 151 143 136 126 61 58 99 97 105 94 107 103 104 102 98 81 49 345 11 15 4 280 227 215 206 197 188 163 96 309 321 311
167 169 172 169 171 172 174 173 170 163 168 166 152 152 154 190 187 256 165 153 167 134 134 142 141 139 135 137 252 257 303 312 293 267 253 247 187 194 234 332 317 300 308
168 168 169 178 173 177 178 179 177 172 167 172 173 139 140 145 151 174 227 207 200 198 203 210 203 193 188 201 241 243 259 267 265 264 263 263 249 266 293 295 295 318 321
162 168 176 180 178 180 185 178 175 173 176 176 171 162 126 103 120 151 192 209 218 226 217 224 221 218 224 224 239 244 240 251 259 263 268 270 262 268 275 286 292 295 296
176 174 180 181 185 185 189 185 182 180 184 181 172 170 163 158 165 161 180 195 211 234 222 228 227 228 232 228 236 242 237 248 254 256 267 271 276 280 283 288 293 298 298
203 200 192 188 189 192 189 185 180 185 188 187 184 187 185 175 158 155 159 176 196 235 240 234 236 229 232 235 245 240 243 248 246 249 262 265 275 283 288 292 293 294 295
205 205 199 190 189 187 188 187 185 187 191 190 186 185 186 181 169 166 161 160 165 220 235 243 241 225 231 241 246 235 244 248 245 247 254 254 261 271 282 288 294 297 297
203 200 199 194 190 187 188 185 195 193 193 193 188 188 190 188 180 177 167 168 169 196 225 225 223 232 243 239 243 238 242 248 246 247 252 252 253 265 274 280 290 295 295
202 200 201 198 196 193 191 188 194 194 197 201 194 189 194 192 184 179 181 182 183 189 216 216 217 231 248 241 244 237 242 246 249 248 251 254 256 261 265 272 278 285 292
203 204 204 198 196 194 192 197 199 198 203 196 192 195 200 191 188 188 185 185 187 186 216 236 218 224 212 233 265 250 250 249 252 252 251 254 253 254 262 268 275 281 286
207 206 202 196 198 197 193 199 201 210 203 197 198 197 202 195 194 191 192 198 197 193 195 225 229 213 217 222 225 249 274 263 257 258 256 257 254 256 262 267 272 276 282
205 209 199 196 200 201 199 197 202 216 203 201 202 203 202 195 199 200 198 201 201 196 189 202 224 220 212 205 204 306 307 284 280 260 262 259 258 258 262 267 270 273 277
199 206 205 198 199 199 203 199 202 209 199 201 206 207 205 202 203 201 202 203 198 194 193 198 212 215 209 190 184 236 286 277 284 276 269 269 266 264 263 266 266 268 273
210 207 197 193 194 198 202 197 201 200 196 199 203 208 208 204 205 204 204 201 196 199 199 211 217 215 216 200 216 219 250 280 279 255 270 274 261 260 266 267 265 267 271
197 190 197 192 192 203 207 203 198 196 195 195 202 208 209 204 206 206 209 206 201 202 204 213 221 225 229 223 215 216 222 254 264 230 241 268 240 255 259 258 261 264 269
187 187 188 183 194 208 205 205 202 193 191 194 198 201 209 214 205 206 213 214 216 218 212 213 217 224 221 215 206 215 223 232 247 232 233 260 256 261 262 263 261 263 266
187 190 185 188 195 217 209 206 200 192 190 195 199 199 199 205 209 200 196 207 220 225 226 220 217 224 222 211 205 214 218 229 293 262 195 243 250 262 275 267 260 261 268
196 206 209 193 193 220 217 207 195 189 193 196 201 201 201 204 207 200 190 195 217 240 238 223 229 235 233 218 200 180 187 214 255 251 216 219 245 276 275 266 263 267 268
200 193 201 211 208 222 229 210 195 187 188 192 196 203 207 208 206 201 198 195 212 232 214 218 222 236 233 216 204 202 202 217 243 247 217 206 233 240 273 270 267 269 273
Height
1537 1539 1541 1544 1546 1548 1550 1552 1554 1556 1558 1560 1562 1563 1565 1566 1567 1568 1570 1571 1572 1572 1573 1573 1574 1574 1575 1575 1575 1576 1576 1576 1576 1576 1576 1576 1576 1576 1576 1576 1575 1575 1575
1535 1537 1540 1542 1545 1547 1549 1551 1553 1555 1557 1559 1561 1562 1564 1566 1567 1568 1569 1571 1572 1572 1573 1574 1574 1574 1575 1575 1575 1576 1576 1576 1576 1576 1576 1576 1576 1576 1576 1576 1576 1575 1575
1534 1536 1538 1540 1543 1545 1547 1549 1552 1554 1556 1558 1560 1561 1563 1565 1566 1568 1569 1570 1571 1572 1573 1573 1574 1574 1575 1575 1575 1575 1576 1576 1576 1576 1576 1576 1576 1576 1576 1576 1576 1576 1575
1532 1534 1536 1539 1541 1543 1545 1547 1550 1552 1554 1556 1558 1560 1562 1564 1565 1567 1568 1569 1570 1571 1572 1573 1573 1574 1574 1574 1575 1575 1575 1576 1576 1576 1576 1576 1576 1576 1576 1576 1576 1575 1575
1529 1531 1534 1536 1539 1541 1543 1546 1548 1550 1552 1554 1557 1558 1560 1562 1564 1565 1567 1568 1569 1570 1571 1572 1572 1573 1573 1574 1574 1575 1575 1575 1575 1575 1576 1576 1576 1576 1576 1576 1575 1575 1575
1526 1529 1531 1534 1536 1539 1541 1543 1545 1548 1551 1553 1555 1557 1559 1561 1562 1563 1565 1566 1568 1569 1570 1570 1571 1572 1572 1573 1573 1574 1574 1574 1575 1575 1575 1575 1575 1575 1575 1575 1575 1574 1574
1523 1525 1528 1530 1533 1535 1538 1540 1543 1545 1548 1551 1553 1555 1557 1559 1560 1561 1563 1564 1566 1567 1568 1569 1569 1570 1571 1571 1572 1572 1573 1573 1573 1574 1574 1574 1574 1574 1574 1574 1573 1573 1573
1519 1522 1525 1527 1529 1532 1535 1537 1540 1542 1545 1548 1550 1552 1555 1558 1558 1559 1561 1562 1563 1565 1566 1567 1568 1568 1569 1569 1570 1570 1571 1571 1572 1572 1572 1572 1572 1572 1572 1572 1572 1572 1571
1515 1518 1521 1524 1526 1529 1531 1534 1537 1539 1541 1545 1547 1550 1551 1553 1555 1557 1558 1560 1561 1562 1564 1565 1565 1566 1567 1567 1568 1568 1569 1569 1570 1570 1570 1571 1570 1570 1570 1570 1570 1570 1569
1512 1514 1517 1520 1523 1525 1527 1530 1533 1536 1538 1541 1544 1546 1549 1550 1552 1554 1557 1558 1559 1560 1561 1562 1563 1564 1564 1565 1565 1566 1567 1567 1567 1568 1568 1568 1568 1568 1568 1568 1568 1567 1567
1508 1511 1514 1516 1519 1522 1524 1527 1529 1533 1535 1538 1540 1542 1545 1547 1549 1551 1552 1555 1556 1557 1558 1559 1560 1561 1562 1562 1563 1563 1564 1564 1565 1565 1566 1566 1566 1566 1565 1565 1565 1564 1564
1504 1507 1510 1513 1516 1518 1520 1523 1526 1529 1532 1535 1538 1540 1541 1543 1545 1547 1549 1550 1552 1554 1555 1557 1558 1558 1559 1560 1560 1561 1561 1562 1562 1562 1563 1563 1563 1563 1563 1562 1562 1561 1561
1500 1503 1507 1509 1512 1514 1517 1519 1522 1525 1528 1531 1534 1536 1539 1541 1543 1545 1547 1548 1549 1550 1552 1553 1554 1556 1556 1557 1557 1558 1558 1559 1559 1559 1559 1559 1559 1559 1559 1559 1558 1558 1557
1497 1500 1503 1505 1508 1511 1513 1516 1518 1521 1524 1527 1530 1533 1535 1537 1540 1541 1544 1545 1546 1547 1548 1549 1551 1552 1553 1554 1554 1555 1555 1555 1556 1556 1556 1556 1556 1556 1556 1555 1555 1554 1554
1493 1496 1499 1502 1504 1507 1509 1512 1514 1517 1520 1523 1526 1529 1531 1534 1536 1538 1540 1542 1544 1543 1544 1545 1547 1548 1549 1550 1551 1551 1551 1552 1552 1552 1552 1552 1552 1552 1552 1551 1551 1550 1550
1489 1492 1494 1497 1499 1502 1505 1507 1511 1513 1515 1519 1522 1525 1527 1530 1532 1534 1536 1538 1540 1541 1541 1541 1543 1544 1545 1546 1547 1548 1548 1548 1548 1549 1549 1548 1548 1548 1548 1547 1547 1547 1546
1484 1487 1489 1492 1494 1497 1500 1503 1505 1508 1511 1514 1517 1520 1523 1525 1527 1530 1532 1534 1535 1537 1537 1537 1539 1540 1541 1542 1543 1544 1544 1544 1544 1544 1545 1544 1544 1544 1544 1543 1543 1542 1542
1480 1483 1485 1487 1490 1493 1495 1498 1500 1503 1506 1508 1512 1515 1518 1520 1523 1525 1527 1529 1531 1532 1533 1533 1534 1536 1536 1537 1538 1539 1540 1540 1540 1540 1540 1540 1540 1540 1539 1539 1538 1538 1537
1476 1478 1480 1483 1485 1488 1490 1493 1496 1498 1501 1503 1507 1509 1512 1515 1517 1520 1522 1524 1526 1527 1528 1529 1529 1531 1532 1533 1533 1534 1535 1535 1535 1535 1536 1535 1535 1535 1535 1534 1534 1533 1533
1471 1473 1476 1478 1480 1483 1485 1488 1491 1493 1496 1498 1502 1504 1507 1509 1512 1514 1517 1519 1521 1522 1523 1524 1525 1526 1527 1528 1528 1528 1529 1530 1530 1531 1531 1531 1530 1530 1530 1529 1529 1528 1527
1466 1469 1471 1473 1475 1478 1480 1483 1486 1488 1491 1493 1496 1498 1501 1503 1506 1508 1511 1513 1515 1516 1518 1519 1519 1520 1521 1522 1523 1523 1523 1524 1524 1525 1525 1525 1525 1525 1525 1524 1523 1523 1522
1461 1464 1466 1468 1470 1472 1475 1478 1481 1483 1485 1488 1490 1492 1495 1498 1500 1502 1505 1507 1510 1511 1512 1513 1513 1514 1515 1517 1518 1518 1518 1518 1518 1520 1520 1519 1520 1519 1519 1519 1518 1518 1517
1457 1458 1461 1462 1464 1467 1470 1473 1475 1478 1480 1482 1485 1487 1489 1492 1494 1496 1499 1501 1503 1505 1507 1508 1508 1509 1510 1511 1512 1513 1513 1513 1513 1514 1514 1513 1514 1514 1514 1514 1513 1513 1512
1452 1454 1455 1457 1459 1462 1465 1467 1470 1473 1475 1477 1480 1482 1484 1486 1488 1490 1493 1495 1497 1499 1501 1502 1503 1504 1506 1506 1507 1508 1508 1508 1508 1508 1509 1508 1508 1508 1508 1508 1508 1507 1507
1449 1451 1452 1453 1455 1457 1460 1462 1464 1467 1469 1472 1475 1477 1479 1481 1483 1486 1487 1489 1491 1493 1495 1496 1498 1498 1500 1501 1502 1503 1503 1503 1502 1502 1503 1503 1502 1502 1502 1502 1502 1501 1501
1447 1448 1449 1450 1452 1453 1455 1457 1460 1462 1465 1467 1470 1472 1474 1476 1478 1480 1482 1484 1485 1487 1489 1490 1492 1493 1494 1495 1496 1497 1497 1497 1497 1497 1497 1498 1497 1497 1496 1495 1496 1496 1495